Printer-friendly version
Follow the MPC on Twitter Follow the MPC on Facebook The MPC blog
Minor Planet Center

MPEC 2009-V27 : 2009 VQ

The following Minor Planet Electronic Circular may be linked-to from your own Web pages, but must not otherwise be redistributed electronically.

A form allowing access to any MPEC is at the bottom of this page.


Read MPEC 2009-V26 Read MPEC 2009-V28


M.P.E.C. 2009-V27                                Issued 2009 Nov.  9, 12:33 UT

     The Minor Planet Electronic Circulars contain information on unusual
         minor planets and routine data on comets.  They are published
   on behalf of Commission 20 of the International Astronomical Union by the
          Minor Planet Center, Smithsonian Astrophysical Observatory,
                          Cambridge, MA 02138, U.S.A.

             Prepared using the Tamkin Foundation Computer Network

                              MPC@CFA.HARVARD.EDU
          URL http://www.cfa.harvard.edu/iau/mpc.html  ISSN 1523-6714

                                    2009 VQ

Observations:
     K09V00Q* C2009 11 08.19561 02 42 22.28 +23 02 34.7          18.4 V EV027703
     K09V00Q  C2009 11 08.20360 02 42 42.08 +23 06 36.9          18.0 V EV027703
     K09V00Q  C2009 11 08.21143 02 43 01.59 +23 10 33.3          18.4 V EV027703
     K09V00Q  C2009 11 08.25381 02 44 45.67 +23 31 34.5          18.2 V EV027703
     K09V00Q  C2009 11 08.25426 02 44 46.71 +23 31 46.9          18.1 V EV027703
     K09V00Q  C2009 11 08.25472 02 44 47.83 +23 32 00.6          18.4 V EV027703
     K09V00Q  C2009 11 08.25516 02 44 48.98 +23 32 14.3          18.4 V EV027703
     K09V00Q  C2009 11 08.28470 02 46 01.28 +23 46 40.7          18.7 R EV027854
     K09V00Q  C2009 11 08.28597 02 46 04.49 +23 47 18.4          19.2 R EV027854
     K09V00Q  C2009 11 08.28727 02 46 07.64 +23 47 55.6          19.3 R EV027854
     K09V00Q  C2009 11 08.30529 02 46 40.62 +23 55 55.3          17.9 R EV027850
     K09V00Q  C2009 11 08.30754 02 46 46.18 +23 57 00.0          17.7 R EV027850
     K09V00Q  C2009 11 08.30878 02 46 49.23 +23 57 34.8          17.7 R EV027850
     K09V00Q  C2009 11 08.30979 02 46 51.79 +23 58 03.4          17.9 R EV027850
     K09V00Q  C2009 11 08.31091 02 46 54.59 +23 58 35.0          17.5 R EV027850
     K09V00Q  C2009 11 08.31202 02 46 57.41 +23 59 06.7          17.4 R EV027850
     K09V00Q  C2009 11 08.31312 02 47 10.68 +24 00 21.2          18.6 V EV027703
     K09V00Q  C2009 11 08.31356 02 47 11.72 +24 00 34.8          18.4 V EV027703
     K09V00Q  C2009 11 08.31401 02 47 12.76 +24 00 46.5          18.1 V EV027703
     K09V00Q  C2009 11 08.31436 02 47 13.74 +24 00 57.9          18.3 V EV027703
     K09V00Q  C2009 11 08.39894 02 50 37.64 +24 39 25.0          18.7 R EV027H36
     K09V00Q  C2009 11 08.40092 02 50 42.65 +24 40 20.2          18.2 R EV027H36
     K09V00Q  C2009 11 08.40486 02 50 52.52 +24 42 08.4          18.0 R EV027H36
     K09V00Q  C2009 11 08.40684 02 50 57.52 +24 43 02.8          18.4 R EV027H36
     K09V00Q  C2009 11 08.41412 02 51 18.39 +24 47 43.6          18.6 R EV027926
     K09V00Q  C2009 11 08.41566 02 51 22.19 +24 48 25.9          18.8 R EV027926
     K09V00Q  C2009 11 08.41721 02 51 26.00 +24 49 08.3          18.8 R EV027926
     K09V00Q  C2009 11 08.85931003 10 54.65 +28 00 36.3                 EV027J95
     K09V00Q  C2009 11 08.86147703 10 59.98 +28 01 30.4                 EV027J95
     K09V00Q  C2009 11 08.86360203 11 05.17 +28 02 24.2          18.6 R EV027J95
     K09V00Q  C2009 11 09.10552 03 20 30.97 +29 37 05.6          17.3 R EV027B18
     K09V00Q  C2009 11 09.10624 03 20 32.73 +29 37 21.8          17.1 R EV027B18
     K09V00Q  C2009 11 09.22999 03 26 13.43 +30 25 59.2          18.5 R EV027926
     K09V00Q  C2009 11 09.23166 03 26 17.24 +30 26 36.1          18.6 R EV027926
     K09V00Q  C2009 11 09.23331 03 26 21.05 +30 27 13.1          18.5 R EV027926
     K09V00Q  C2009 11 09.47995 03 35 38.44 +31 50 44.3          18.7 R EV027H01
     K09V00Q  C2009 11 09.48623 03 35 52.88 +31 52 42.2          18.6 R EV027H01
     K09V00Q  C2009 11 09.49067 03 36 03.09 +31 54 05.2          18.6 R EV027H01
     K09V00Q  C2009 11 09.49418 03 36 11.19 +31 55 10.7          18.4 R EV027H01
     K09V00Q  C2009 11 09.50197 03 36 29.16 +31 58 00.3          19.0 R EV027926
     K09V00Q  C2009 11 09.50527 03 36 36.71 +31 59 01.9          18.0 R EV027926

Observer details:
703 Catalina Sky Survey.  Observer A. Boattini.  Measurers E. C. Beshore,
    A. Boattini, G. J. Garradd, A. R. Gibbs, A. D. Grauer, R. E. Hill,
    R. A. Kowalski, S. M. Larson, R. H. McNaught.  0.68-m Schmidt + CCD.
850 Cordell-Lorenz Observatory, Sewanee.  Observers D. T. Durig,
    M. Z. Georgieva.  0.30-m f/2.8 Schmidt-Cassegrain + 765x510 CCD.
854 Sabino Canyon Observatory, Tucson.  Observer J. E. McGaha.  0.36-m f/10.0
    Schmidt-Cassegrain + CCD.
926 Tenagra II Observatory.  Observers P. R. Holvorcem, M. Schwartz.  Measurer
    P. R. Holvorcem.  0.81-m f/7 Ritchey-Chretien + CCD.
B18 Terskol.  Observers M. Andreev, A. Sergeev, N. Parakhin, V. Kozlov.
    Measurer M. Andreev.  0.6-m f/12.8 reflector + CCD.
H01 Magdalena Ridge Observatory, Socorro.  Observer W. H. Ryan.  2.4-m f/8.9
    reflector + CCD.
H36 Sandlot Observatory, Scranton.  Observer G. Hug.  0.56-m reflector + CCD.
J95 Great Shefford.  Observer P. Birtwhistle.  0.40-m f/6.0 Schmidt-Cassegrain
    + CCD.

Orbital elements:
2009 VQ                                                  Earth MOID = 0.0163 AU
Epoch 2010 Jan. 4.0 TT = JDT 2455200.5                  MPC
M  16.61509              (2000.0)            P               Q
n   0.26262492     Peri.  353.70140     +0.78930257     -0.61127226
a   2.4149719      Node    44.15357     +0.56690082     +0.68931183
e   0.5832183      Incl.    4.76455     +0.23584934     +0.38883856
P   3.75           H   26.4           G   0.15           U   5
Residuals in seconds of arc
091108 703  0.9-  0.5-    091108 850  1.3+  0.5-    091108 J95  0.0   0.2-
091108 703  0.8-  0.5+    091108 850  2.4+  0.3-    091108 J95  0.1-  0.2+
091108 703  1.3+  1.2+    091108 703  0.1-  0.7-    091109 B18  0.3-  1.2-
091108 703  0.6-  0.1+    091108 703  0.6-  0.2+    091109 B18  0.3-  0.7-
091108 703  1.5-  0.8-    091108 703  1.4-  1.0-    091109 926  0.4-  0.1+
091108 703  1.6-  0.7-    091108 703  0.3+  0.4+    091109 926  0.7-  0.0
091108 703  0.6-  0.0     091108 H36  0.5+  0.4-    091109 926  0.4-  0.4+
091108 854  0.7-  0.2-    091108 H36  1.1+  0.4+    091109 H01  0.1+  0.2-
091108 854  0.8+  0.6+    091108 H36  0.9+  0.5+    091109 H01  0.3+  0.0
091108 854  0.5+  0.1-    091108 H36  1.3+  0.6+    091109 H01  0.3+  0.0
091108 850  0.1+  0.4-    091108 926  0.3+  0.1+    091109 H01  0.5+  0.0
091108 850  0.1+  0.3+    091108 926  0.2+  0.2+    091109 926  0.4+  0.3-
091108 850  0.0   0.2-    091108 926  0.2-  0.2+    091109 926  0.1-  0.1+
091108 850  0.8+  0.3-    091108 J95  0.4-  0.2+

Ephemeris:
2009 VQ                  a,e,i = 2.41, 0.58, 5                   q = 1.0065
Date    TT    R. A. (2000) Decl.     Delta      r     Elong.  Phase     V
2009 11 05    00 31.35   -07 01.9    0.0203   1.007   140.8    38.5    19.5
2009 11 06    01 08.27   +02 02.5    0.0188   1.008   152.6    27.0    19.0
2009 11 07    01 49.74   +12 00.9    0.0183   1.009   165.2    14.6    18.6
2009 11 08    02 33.51   +21 24.8    0.0191   1.010   173.4     6.5    18.3
2009 11 09    03 16.50   +29 00.0    0.0209   1.011   167.0    12.8    18.8
2009 11 10    03 55.89   +34 26.7    0.0235   1.012   158.7    20.8    19.3
2009 11 11    04 30.10   +38 05.2    0.0266   1.014   152.1    27.2    19.8
2009 11 12    04 58.79   +40 26.4    0.0302   1.015   147.1    32.0    20.2
2009 11 13    05 22.43   +41 56.7    0.0340   1.017   143.4    35.5    20.6
2009 11 14    05 41.81   +42 54.3    0.0381   1.019   140.7    38.0    20.9
2009 11 15    05 57.71   +43 31.0    0.0422   1.021   138.6    39.8    21.1
2009 11 16    06 10.82   +43 54.3    0.0465   1.024   137.2    41.0    21.4
2009 11 17    06 21.70   +44 08.8    0.0508   1.026   136.1    41.9    21.6
2009 11 18    06 30.79   +44 17.6    0.0552   1.029   135.4    42.4    21.8
2009 11 19    06 38.45   +44 22.4    0.0596   1.031   135.0    42.7    22.0
2009 11 20    06 44.92   +44 24.6    0.0641   1.034   134.7    42.7    22.2
2009 11 21    06 50.43   +44 25.0    0.0686   1.037   134.7    42.6    22.3
2009 11 22    06 55.13   +44 24.1    0.0732   1.041   134.7    42.4    22.5
2009 11 23    06 59.16   +44 22.2    0.0777   1.044   134.9    42.1    22.6
2009 11 24    07 02.62   +44 19.8    0.0823   1.047   135.2    41.6    22.7
2009 11 25    07 05.58   +44 16.8    0.0870   1.051   135.6    41.1    22.8

Timothy B. Spahr             (C) Copyright 2009 MPC           M.P.E.C. 2009-V27

Read MPEC 2009-V26 Read MPEC 2009-V28


MPEC number:

Enter an MPEC number in one of the following forms:

  • 1997-B01 (the full form)
  • J97B01 (the packed version of the full form)
  • B01 (the abbreviated form)

Valid HTML 4.01!